TimeCST,TemperatureF,Dew PointF,Humidity,Sea Level PressureIn,VisibilityMPH,Wind Direction,Wind SpeedMPH,Gust SpeedMPH,PrecipitationIn,Events,Conditions,WindDirDegrees,DateUTC
12:52 AM,9.0,-2.0,61,30.37,-9999.0,SE,3.5,-,N/A,,Unknown,140,2013-01-22 06:52:00
1:52 AM,8.1,-2.0,64,30.37,-9999.0,Calm,Calm,-,N/A,,Unknown,0,2013-01-22 07:52:00
2:52 AM,8.1,1.0,73,30.37,-9999.0,SE,6.9,-,N/A,,Unknown,140,2013-01-22 08:52:00
3:52 AM,8.1,1.9,76,30.36,-9999.0,SE,6.9,-,0.01,,Unknown,130,2013-01-22 09:52:00
4:52 AM,8.1,1.9,76,30.36,-9999.0,East,6.9,-,0.01,,Unknown,100,2013-01-22 10:52:00
5:52 AM,7.0,1.9,80,30.35,-9999.0,East,8.1,-,N/A,,Unknown,100,2013-01-22 11:52:00
6:52 AM,7.0,1.0,77,30.36,-9999.0,ESE,8.1,-,N/A,,Unknown,110,2013-01-22 12:52:00
7:52 AM,6.1,-0.0,76,30.36,-9999.0,ESE,10.4,-,N/A,,Unknown,120,2013-01-22 13:52:00
8:52 AM,7.0,1.9,80,30.34,-9999.0,SE,11.5,-,N/A,,Unknown,140,2013-01-22 14:52:00
9:52 AM,9.0,3.0,77,30.34,-9999.0,SE,11.5,-,N/A,,Unknown,140,2013-01-22 15:52:00
10:52 AM,10.9,3.9,73,30.34,-9999.0,SE,11.5,-,N/A,,Unknown,140,2013-01-22 16:52:00
11:52 AM,12.0,5.0,73,30.33,-9999.0,SSE,13.8,-,N/A,,Unknown,150,2013-01-22 17:52:00
12:52 PM,12.9,6.1,74,30.30,-9999.0,SSE,9.2,-,N/A,,Unknown,150,2013-01-22 18:52:00
1:52 PM,15.1,7.0,70,30.27,-9999.0,SE,6.9,-,N/A,,Unknown,130,2013-01-22 19:52:00
2:52 PM,15.1,8.1,74,30.25,-9999.0,ESE,6.9,-,N/A,,Unknown,110,2013-01-22 20:52:00
3:52 PM,16.0,9.0,74,30.24,-9999.0,ESE,9.2,-,N/A,,Unknown,120,2013-01-22 21:52:00
4:52 PM,15.1,9.0,77,30.24,-9999.0,ESE,8.1,-,N/A,,Unknown,120,2013-01-22 22:52:00
5:52 PM,12.9,7.0,77,30.24,-9999.0,East,5.8,-,N/A,,Unknown,100,2013-01-22 23:52:00
6:52 PM,12.0,7.0,80,30.24,-9999.0,East,4.6,-,N/A,,Unknown,90,2013-01-23 00:52:00
7:52 PM,12.0,7.0,80,30.23,-9999.0,East,5.8,-,N/A,,Unknown,90,2013-01-23 01:52:00
8:52 PM,10.0,6.1,84,30.22,-9999.0,ESE,6.9,-,N/A,,Unknown,110,2013-01-23 02:52:00
9:52 PM,9.0,3.9,80,30.22,-9999.0,Calm,Calm,-,N/A,,Unknown,0,2013-01-23 03:52:00
10:52 PM,10.9,6.1,81,30.21,-9999.0,South,3.5,-,N/A,,Unknown,170,2013-01-23 04:52:00
11:52 PM,9.0,5.0,84,30.22,-9999.0,WSW,4.6,-,N/A,,Unknown,250,2013-01-23 05:52:00